| time (UTC) | temp F | wind direction | speed MPH | gust MPH | rain 1hr in | rain 24hr in | rain mn in | humidity % | barometer mb |
| 20260504031045 | 41 | 22 | 1.0 | 1.0 | 0.00 | 0.00 | 0.00 | 83 | 1011.5 |
| 20260504030542 | 40 | 32 | 1.0 | 2.0 | 0.00 | 0.00 | 0.00 | 83 | 1011.5 |
| 20260504030038 | 40 | 24 | 1.0 | 1.0 | 0.00 | 0.00 | 0.00 | 85 | 1011.4 |
| 20260504025536 | 40 | 10 | 1.0 | 2.0 | 0.00 | 0.00 | 0.00 | 86 | 1011.3 |
| 20260504025032 | 40 | 354 | 0.0 | 0.0 | 0.00 | 0.00 | 0.00 | 84 | 1011.2 |
| 20260504024529 | 40 | 354 | 0.0 | 0.0 | 0.00 | 0.00 | 0.00 | 83 | 1011.5 |
| 20260504024026 | 40 | 354 | 0.0 | 0.0 | 0.00 | 0.00 | 0.00 | 83 | 1011.5 |
| 20260504023523 | 40 | 354 | 0.0 | 0.0 | 0.00 | 0.00 | 0.00 | 82 | 1011.4 |
| 20260504023018 | 40 | 354 | 0.0 | 0.0 | 0.00 | 0.00 | 0.00 | 82 | 1011.5 |
| 20260504022514 | 40 | 354 | 0.0 | 0.0 | 0.00 | 0.00 | 0.00 | 82 | 1011.4 |
| 20260504022011 | 41 | 359 | 0.0 | 0.0 | 0.00 | 0.00 | 0.00 | 83 | 1011.3 |
| 20260504021509 | 41 | 356 | 0.0 | 0.0 | 0.00 | 0.00 | 0.00 | 84 | 1011.4 |
| 20260504021006 | 41 | 356 | 0.0 | 0.0 | 0.00 | 0.00 | 0.00 | 81 | 1011.3 |
| 20260504020502 | 41 | 357 | 0.0 | 0.0 | 0.00 | 0.00 | 0.00 | 81 | 1011.3 |
| 20260504015959 | 41 | 1 | 0.0 | 0.0 | 0.00 | 0.00 | 0.00 | 81 | 1011.5 |
| 20260504015455 | 41 | 1 | 0.0 | 0.0 | 0.00 | 0.00 | 0.00 | 80 | 1011.4 |
| 20260504014951 | 41 | 4 | 0.0 | 0.0 | 0.00 | 0.00 | 0.00 | 80 | 1011.3 |
| 20260504014447 | 40 | 4 | 0.0 | 0.0 | 0.00 | 0.00 | 0.00 | 80 | 1011.3 |
| 20260504013944 | 40 | 4 | 0.0 | 0.0 | 0.00 | 0.00 | 0.00 | 81 | 1011.2 |
| 20260504013443 | 40 | 4 | 0.0 | 0.0 | 0.00 | 0.00 | 0.00 | 81 | 1011.1 |
| 20260504012938 | 41 | 4 | 0.0 | 0.0 | 0.00 | 0.00 | 0.00 | 79 | 1011.2 |
| 20260504012437 | 41 | 4 | 0.0 | 0.0 | 0.00 | 0.00 | 0.00 | 77 | 1011.1 |
| 20260504011934 | 41 | 4 | 0.0 | 0.0 | 0.00 | 0.00 | 0.00 | 77 | 1011.2 |
| 20260504011430 | 41 | 4 | 0.0 | 0.0 | 0.00 | 0.00 | 0.00 | 78 | 1011.1 |
| 20260504010926 | 41 | 3 | 0.0 | 0.0 | 0.00 | 0.00 | 0.00 | 77 | 1011.0 |
| 20260504010422 | 42 | 3 | 1.0 | 1.0 | 0.00 | 0.00 | 0.00 | 76 | 1011.1 |
| 20260504005919 | 42 | 3 | 1.0 | 1.0 | 0.00 | 0.00 | 0.00 | 76 | 1011.1 |
| 20260504005415 | 42 | 1 | 1.0 | 1.0 | 0.00 | 0.00 | 0.00 | 77 | 1011.0 |
| 20260504004913 | 43 | 4 | 0.0 | 0.0 | 0.00 | 0.00 | 0.00 | 74 | 1011.1 |
| 20260504004411 | 43 | 8 | 1.0 | 1.0 | 0.00 | 0.00 | 0.00 | 73 | 1011.0 |
| 20260504003908 | 43 | 12 | 1.0 | 1.0 | 0.00 | 0.00 | 0.00 | 73 | 1011.1 |
| 20260504003404 | 44 | 351 | 1.0 | 1.0 | 0.00 | 0.00 | 0.00 | 72 | 1011.0 |
| 20260504002901 | 45 | 347 | 0.0 | 1.0 | 0.00 | 0.00 | 0.00 | 72 | 1011.0 |
| 20260504002358 | 45 | 6 | 0.0 | 0.0 | 0.00 | 0.00 | 0.00 | 68 | 1010.8 |
| 20260504001855 | 46 | 359 | 0.0 | 1.0 | 0.00 | 0.00 | 0.00 | 66 | 1010.7 |
| 20260504001352 | 46 | 356 | 0.0 | 0.0 | 0.00 | 0.00 | 0.00 | 65 | 1010.8 |
| 20260504000849 | 47 | 0 | 0.0 | 0.0 | 0.00 | 0.00 | 0.00 | 64 | 1010.6 |
| 20260504000346 | 48 | 2 | 0.0 | 0.0 | 0.00 | 0.00 | 0.00 | 60 | 1010.8 |
| 20260503235844 | 49 | 355 | 0.0 | 0.0 | 0.00 | 0.00 | 0.00 | 61 | 1010.3 |
| 20260503235341 | 49 | 358 | 0.0 | 0.0 | 0.00 | 0.00 | 0.00 | 58 | 1010.6 |
| 20260503234838 | 50 | 350 | 0.0 | 0.0 | 0.00 | 0.00 | 0.00 | 60 | 1010.1 |
| 20260503234336 | 50 | 322 | 1.0 | 2.0 | 0.00 | 0.00 | 0.00 | 52 | 1010.8 |
| 20260503233834 | 51 | 289 | 1.0 | 1.0 | 0.00 | 0.00 | 0.00 | 52 | 1010.6 |
| 20260503233329 | 51 | 253 | 1.0 | 2.0 | 0.00 | 0.00 | 0.00 | 52 | 1010.3 |
| 20260503232826 | 51 | 337 | 1.0 | 1.0 | 0.00 | 0.00 | 0.00 | 52 | 1010.3 |
| 20260503232323 | 51 | 284 | 2.0 | 3.0 | 0.00 | 0.00 | 0.00 | 51 | 1010.3 |
| 20260503231821 | 51 | 230 | 3.0 | 3.0 | 0.00 | 0.00 | 0.00 | 50 | 1010.3 |
| 20260503231318 | 52 | 280 | 3.0 | 3.0 | 0.00 | 0.00 | 0.00 | 50 | 1010.4 |
| 20260503230814 | 52 | 303 | 1.0 | 1.0 | 0.00 | 0.00 | 0.00 | 51 | 1010.2 |
| 20260503230311 | 52 | 300 | 3.0 | 3.0 | 0.00 | 0.00 | 0.00 | 52 | 1010.3 |
| 20260503225809 | 51 | 220 | 3.0 | 3.0 | 0.00 | 0.00 | 0.00 | 51 | 1010.6 |
| 20260503225305 | 52 | 226 | 3.0 | 3.0 | 0.00 | 0.00 | 0.00 | 51 | 1010.2 |
| 20260503224801 | 51 | 244 | 2.0 | 2.0 | 0.00 | 0.00 | 0.00 | 52 | 1010.2 |
| 20260503224259 | 52 | 249 | 3.0 | 3.0 | 0.00 | 0.00 | 0.00 | 51 | 1010.4 |
| 20260503223756 | 52 | 340 | 1.0 | 1.0 | 0.00 | 0.00 | 0.00 | 52 | 1010.6 |
| 20260503223253 | 52 | 275 | 3.0 | 3.0 | 0.00 | 0.00 | 0.00 | 49 | 1010.4 |
| 20260503222749 | 52 | 279 | 3.0 | 3.0 | 0.00 | 0.00 | 0.00 | 50 | 1010.4 |
| 20260503222247 | 52 | 266 | 3.0 | 3.0 | 0.00 | 0.00 | 0.00 | 50 | 1010.2 |
| 20260503221746 | 51 | 278 | 5.0 | 6.0 | 0.00 | 0.00 | 0.00 | 51 | 1010.4 |
| 20260503221243 | 53 | 256 | 3.0 | 5.0 | 0.00 | 0.00 | 0.00 | 49 | 1010.4 |
| 20260503220740 | 53 | 293 | 5.0 | 6.0 | 0.00 | 0.00 | 0.00 | 50 | 1010.4 |
| 20260503220237 | 52 | 3 | 2.0 | 3.0 | 0.00 | 0.00 | 0.00 | 49 | 1010.4 |
| 20260503215733 | 52 | 208 | 4.0 | 5.0 | 0.00 | 0.00 | 0.00 | 49 | 1010.3 |
| 20260503215230 | 53 | 242 | 4.0 | 6.0 | 0.00 | 0.00 | 0.00 | 47 | 1010.6 |
| 20260503214728 | 52 | 264 | 6.0 | 7.0 | 0.00 | 0.00 | 0.00 | 48 | 1010.3 |
| 20260503214225 | 52 | 262 | 6.0 | 7.0 | 0.00 | 0.00 | 0.00 | 47 | 1010.3 |
| 20260503213723 | 52 | 299 | 4.0 | 5.0 | 0.00 | 0.00 | 0.00 | 47 | 1010.4 |
| 20260503213220 | 52 | 269 | 4.0 | 5.0 | 0.00 | 0.00 | 0.00 | 45 | 1010.3 |
| 20260503212717 | 52 | 257 | 4.0 | 5.0 | 0.00 | 0.00 | 0.00 | 45 | 1010.3 |
| 20260503212214 | 52 | 265 | 4.0 | 5.0 | 0.00 | 0.00 | 0.00 | 47 | 1010.1 |
| 20260503211712 | 52 | 260 | 2.0 | 3.0 | 0.00 | 0.00 | 0.00 | 45 | 1010.1 |
| 20260503211208 | 52 | 288 | 2.0 | 2.0 | 0.00 | 0.00 | 0.00 | 45 | 1010.0 |
| 20260503210704 | 53 | 321 | 6.0 | 8.0 | 0.00 | 0.00 | 0.00 | 44 | 1010.2 |
| 20260503210201 | 52 | 199 | 8.0 | 10.0 | 0.00 | 0.00 | 0.00 | 43 | 1009.9 |
| 20260503205656 | 52 | 276 | 6.0 | 8.0 | 0.00 | 0.00 | 0.00 | 43 | 1010.0 |
| 20260503205152 | 52 | 223 | 8.0 | 10.0 | 0.00 | 0.00 | 0.00 | 43 | 1010.0 |
| 20260503204649 | 52 | 232 | 4.0 | 5.0 | 0.00 | 0.00 | 0.00 | 43 | 1010.0 |
| 20260503204147 | 52 | 261 | 6.0 | 8.0 | 0.00 | 0.00 | 0.00 | 43 | 1010.1 |
| 20260503203644 | 53 | 270 | 6.0 | 9.0 | 0.00 | 0.00 | 0.00 | 43 | 1009.8 |
| 20260503203142 | 52 | 306 | 2.0 | 2.0 | 0.00 | 0.00 | 0.00 | 45 | 1009.8 |
| 20260503202638 | 53 | 313 | 6.0 | 7.0 | 0.00 | 0.00 | 0.00 | 42 | 1009.9 |
| 20260503202137 | 52 | 252 | 4.0 | 5.0 | 0.00 | 0.00 | 0.00 | 43 | 1010.0 |
| 20260503201634 | 52 | 247 | 7.0 | 10.0 | 0.00 | 0.00 | 0.00 | 42 | 1010.0 |
| 20260503201131 | 54 | 342 | 3.0 | 3.0 | 0.00 | 0.00 | 0.00 | 43 | 1009.9 |
| 20260503200627 | 53 | 346 | 3.0 | 5.0 | 0.00 | 0.00 | 0.00 | 41 | 1009.7 |
| 20260503200124 | 54 | 252 | 6.0 | 8.0 | 0.00 | 0.00 | 0.00 | 43 | 1010.0 |
| 20260503195621 | 53 | 79 | 1.0 | 2.0 | 0.00 | 0.00 | 0.00 | 42 | 1010.0 |
| 20260503195118 | 51 | 317 | 4.0 | 5.0 | 0.00 | 0.00 | 0.00 | 44 | 1010.0 |
| 20260503194615 | 52 | 281 | 5.0 | 7.0 | 0.00 | 0.00 | 0.00 | 42 | 1010.2 |
| 20260503194110 | 53 | 236 | 11.0 | 13.0 | 0.00 | 0.00 | 0.00 | 39 | 1009.9 |
| 20260503193607 | 53 | 272 | 4.0 | 5.0 | 0.00 | 0.00 | 0.00 | 40 | 1010.0 |
| 20260503193102 | 52 | 254 | 8.0 | 9.0 | 0.00 | 0.00 | 0.00 | 40 | 1010.6 |
| 20260503192558 | 53 | 276 | 3.0 | 5.0 | 0.00 | 0.00 | 0.00 | 40 | 1010.3 |
| 20260503192054 | 52 | 220 | 4.0 | 5.0 | 0.00 | 0.00 | 0.00 | 41 | 1010.6 |
| 20260503191551 | 51 | 227 | 9.0 | 9.0 | 0.00 | 0.00 | 0.00 | 41 | 1010.4 |
| 20260503191048 | 51 | 296 | 4.0 | 5.0 | 0.00 | 0.00 | 0.00 | 41 | 1010.8 |
| 20260503190545 | 52 | 248 | 5.0 | 6.0 | 0.00 | 0.00 | 0.00 | 41 | 1011.0 |
| 20260503190042 | 51 | 10 | 5.0 | 7.0 | 0.00 | 0.00 | 0.00 | 43 | 1010.7 |
| 20260503185539 | 51 | 291 | 3.0 | 5.0 | 0.00 | 0.00 | 0.00 | 43 | 1011.0 |
| 20260503185038 | 51 | 234 | 6.0 | 8.0 | 0.00 | 0.00 | 0.00 | 45 | 1010.9 |
| 20260503184535 | 52 | 337 | 5.0 | 6.0 | 0.00 | 0.00 | 0.00 | 42 | 1010.8 |
| 20260503184032 | 51 | 178 | 3.0 | 3.0 | 0.00 | 0.00 | 0.00 | 41 | 1010.9 |
| 20260503183528 | 50 | 311 | 2.0 | 3.0 | 0.00 | 0.00 | 0.00 | 43 | 1011.3 |
| 20260503183025 | 50 | 193 | 8.0 | 13.0 | 0.00 | 0.00 | 0.00 | 41 | 1011.4 |
| 20260503182524 | 52 | 292 | 3.0 | 3.0 | 0.00 | 0.00 | 0.00 | 43 | 1011.3 |
| 20260503182021 | 51 | 247 | 4.0 | 6.0 | 0.00 | 0.00 | 0.00 | 44 | 1011.4 |
| 20260503181518 | 50 | 303 | 6.0 | 8.0 | 0.00 | 0.00 | 0.00 | 46 | 1011.2 |
| 20260503181014 | 49 | 249 | 5.0 | 6.0 | 0.00 | 0.00 | 0.00 | 46 | 1011.3 |
| 20260503180512 | 49 | 237 | 7.0 | 8.0 | 0.00 | 0.00 | 0.00 | 43 | 1011.3 |
| 20260503180009 | 50 | 260 | 7.0 | 10.0 | 0.00 | 0.00 | 0.00 | 47 | 1011.2 |
| 20260503175506 | 49 | 290 | 4.0 | 5.0 | 0.00 | 0.00 | 0.00 | 45 | 1011.3 |
| 20260503175003 | 48 | 225 | 3.0 | 5.0 | 0.00 | 0.00 | 0.00 | 45 | 1011.4 |
| 20260503174501 | 47 | 315 | 5.0 | 6.0 | 0.00 | 0.00 | 0.00 | 45 | 1011.5 |
| 20260503173956 | 48 | 270 | 7.0 | 8.0 | 0.00 | 0.00 | 0.00 | 44 | 1011.6 |
| 20260503173452 | 47 | 253 | 3.0 | 3.0 | 0.00 | 0.00 | 0.00 | 46 | 1011.6 |
| 20260503172948 | 47 | 269 | 4.0 | 6.0 | 0.00 | 0.00 | 0.00 | 45 | 1011.6 |
| 20260503172446 | 48 | 304 | 9.0 | 11.0 | 0.00 | 0.00 | 0.00 | 43 | 1011.9 |
| 20260503171942 | 48 | 306 | 3.0 | 3.0 | 0.00 | 0.00 | 0.00 | 44 | 1011.6 |
| 20260503171439 | 49 | 171 | 2.0 | 3.0 | 0.00 | 0.00 | 0.00 | 46 | 1011.7 |
| 20260503170937 | 49 | 268 | 5.0 | 6.0 | 0.00 | 0.00 | 0.00 | 43 | 1011.3 |
| 20260503170432 | 47 | 345 | 3.0 | 3.0 | 0.00 | 0.00 | 0.00 | 45 | 1011.4 |
| 20260503150825 | 44 | 276 | 3.0 | 5.0 | 0.00 | 0.00 | 0.00 | 56 | 1012.3 |
| 20260503150321 | 42 | 283 | 3.0 | 5.0 | 0.00 | 0.00 | 0.00 | 54 | 1012.4 |
| 20260503140246 | 43 | 293 | 4.0 | 6.0 | 0.00 | 0.00 | 0.00 | 60 | 1012.4 |
| 20260503131215 | 39 | 357 | 2.0 | 2.0 | 0.00 | 0.00 | 0.00 | 75 | 1013.1 |
| 20260503130713 | 40 | 292 | 4.0 | 5.0 | 0.00 | 0.00 | 0.00 | 75 | 1012.9 |
| 20260503130210 | 40 | 344 | 3.0 | 3.0 | 0.00 | 0.00 | 0.00 | 75 | 1012.8 |
| 20260503120135 | 37 | 335 | 2.0 | 2.0 | 0.00 | 0.00 | 0.00 | 83 | 1012.6 |
| 20260503110603 | 35 | 252 | 2.0 | 2.0 | 0.00 | 0.00 | 0.00 | 86 | 1012.2 |
| 20260503090450 | 33 | 344 | 0.0 | 0.0 | 0.00 | 0.00 | 0.00 | 91 | 1011.2 |
| 20260503081416 | 33 | 325 | 1.0 | 1.0 | 0.00 | 0.00 | 0.00 | 90 | 1011.3 |
| 20260503080914 | 33 | 325 | 1.0 | 1.0 | 0.00 | 0.00 | 0.00 | 90 | 1011.4 |
| 20260503080410 | 33 | 303 | 1.0 | 1.0 | 0.00 | 0.00 | 0.00 | 90 | 1011.5 |
| 20260503072846 | 33 | 17 | 0.0 | 0.0 | 0.00 | 0.00 | 0.00 | 90 | 1011.5 |
| 20260503072338 | 33 | 356 | 0.0 | 0.0 | 0.00 | 0.00 | 0.00 | 89 | 1011.6 |
| 20260503071834 | 33 | 357 | 0.0 | 0.0 | 0.00 | 0.00 | 0.00 | 88 | 1011.3 |
| 20260503071331 | 34 | 351 | 0.0 | 1.0 | 0.00 | 0.00 | 0.00 | 88 | 1011.4 |
| 20260503070827 | 34 | 349 | 2.0 | 2.0 | 0.00 | 0.00 | 0.00 | 87 | 1011.5 |
| 20260503070326 | 34 | 320 | 0.0 | 1.0 | 0.00 | 0.00 | 0.00 | 87 | 1011.4 |
| 20260503060238 | 35 | 359 | 1.0 | 1.0 | 0.00 | 0.00 | 0.00 | 84 | 1011.8 |
| 20260503054726 | 35 | 317 | 3.0 | 3.0 | 0.00 | 0.00 | 0.00 | 82 | 1012.0 |
| 20260503054222 | 36 | 347 | 0.0 | 1.0 | 0.00 | 0.00 | 0.00 | 81 | 1012.0 |
| 20260503053720 | 36 | 271 | 3.0 | 3.0 | 0.00 | 0.00 | 0.00 | 80 | 1012.3 |
| 20260503053219 | 36 | 301 | 2.0 | 2.0 | 0.00 | 0.00 | 0.00 | 80 | 1012.0 |
| 20260503052715 | 37 | 295 | 4.0 | 5.0 | 0.00 | 0.00 | 0.00 | 79 | 1012.1 |
| 20260503052212 | 36 | 249 | 4.0 | 5.0 | 0.00 | 0.00 | 0.00 | 79 | 1012.3 |
| 20260503051707 | 37 | 301 | 3.0 | 5.0 | 0.00 | 0.00 | 0.00 | 79 | 1012.2 |
| 20260503051205 | 37 | 293 | 4.0 | 5.0 | 0.00 | 0.00 | 0.00 | 77 | 1012.2 |
| 20260503050701 | 37 | 327 | 3.0 | 3.0 | 0.00 | 0.00 | 0.00 | 79 | 1012.1 |
| 20260503050158 | 37 | 343 | 1.0 | 1.0 | 0.00 | 0.00 | 0.00 | 79 | 1012.1 |
| 20260503045655 | 37 | 6 | 0.0 | 0.0 | 0.00 | 0.00 | 0.00 | 78 | 1012.3 |
| 20260503045153 | 37 | 291 | 2.0 | 2.0 | 0.00 | 0.00 | 0.00 | 77 | 1012.5 |
| 20260503044649 | 37 | 350 | 0.0 | 1.0 | 0.00 | 0.00 | 0.00 | 78 | 1012.3 |
| 20260503044147 | 37 | 10 | 1.0 | 1.0 | 0.00 | 0.00 | 0.00 | 79 | 1012.4 |
| 20260503043643 | 38 | 350 | 0.0 | 0.0 | 0.00 | 0.00 | 0.00 | 76 | 1012.4 |
| 20260503043140 | 38 | 291 | 2.0 | 3.0 | 0.00 | 0.00 | 0.00 | 77 | 1012.4 |
| 20260503042636 | 38 | 32 | 1.0 | 1.0 | 0.00 | 0.00 | 0.00 | 76 | 1012.4 |
| 20260503042132 | 38 | 335 | 1.0 | 1.0 | 0.00 | 0.00 | 0.00 | 76 | 1012.4 |
| 20260503041629 | 38 | 347 | 1.0 | 2.0 | 0.00 | 0.00 | 0.00 | 75 | 1012.5 |
| 20260503041127 | 38 | 32 | 1.0 | 1.0 | 0.00 | 0.00 | 0.00 | 75 | 1012.5 |
| 20260503040624 | 39 | 343 | 0.0 | 1.0 | 0.00 | 0.00 | 0.00 | 74 | 1012.4 |
| 20260503040122 | 39 | 278 | 1.0 | 1.0 | 0.00 | 0.00 | 0.00 | 73 | 1012.5 |
| 20260503035618 | 39 | 320 | 1.0 | 1.0 | 0.00 | 0.03 | 0.03 | 73 | 1012.4 |
| 20260503035116 | 39 | 337 | 0.0 | 1.0 | 0.00 | 0.03 | 0.03 | 72 | 1012.3 |
| 20260503034613 | 39 | 343 | 1.0 | 1.0 | 0.00 | 0.03 | 0.03 | 72 | 1012.3 |
| 20260503034110 | 39 | 345 | 0.0 | 0.0 | 0.00 | 0.03 | 0.03 | 71 | 1012.2 |
| 20260503033607 | 39 | 5 | 2.0 | 2.0 | 0.00 | 0.03 | 0.03 | 71 | 1012.2 |
| 20260503033105 | 39 | 318 | 3.0 | 5.0 | 0.00 | 0.03 | 0.03 | 71 | 1012.2 |
| 20260503032603 | 39 | 320 | 1.0 | 1.0 | 0.00 | 0.03 | 0.03 | 71 | 1012.5 |
| 20260503032101 | 40 | 350 | 1.0 | 2.0 | 0.00 | 0.03 | 0.03 | 71 | 1012.3 |
| 20260503031558 | 40 | 336 | 2.0 | 2.0 | 0.00 | 0.03 | 0.03 | 70 | 1012.3 |